Wind_Speed
22 22 22 22 23 22 21 20 17 15 14 13 13 15 14 9 5 4 6 5 8 20 28 25 29 37 37 36 37 36 35 35 34 33 33 33 33 34 33 32 32 32 31 32 33 34 34 34 34 34 35 35 32 29 28 28 27 26 25 22 22 22 20 20 24 28 31 35 37 38 39 40 40 38
21 22 22 22 22 21 20 20 18 16 15 15 15 15 15 13 8 3 5 6 7 17 27 28 30 35 37 36 37 36 35 35 34 34 34 34 34 34 33 32 32 32 32 32 33 34 35 35 36 37 36 36 33 29 28 28 27 26 25 23 22 22 20 19 22 26 31 34 36 39 41 42 42 40
21 22 22 22 21 19 18 18 18 17 17 17 16 16 15 15 12 7 4 5 10 20 27 31 33 33 35 36 35 35 35 34 34 35 35 35 35 34 34 34 34 33 33 33 34 34 36 37 38 39 37 34 33 31 28 28 27 26 24 23 21 21 21 20 20 23 29 33 35 39 42 42 42 42
20 22 22 22 20 19 19 18 18 17 18 17 17 17 17 16 16 14 8 6 15 27 28 29 34 34 33 35 35 35 36 35 35 35 36 35 34 34 34 35 35 34 34 35 35 35 37 38 39 38 36 33 32 31 30 27 26 25 24 23 21 20 20 20 20 20 24 31 34 37 42 44 43 43
20 21 21 21 20 20 20 20 19 19 18 18 18 17 18 19 18 16 13 9 15 28 31 30 33 35 33 34 35 34 36 36 35 36 36 35 34 34 35 37 37 35 35 36 37 37 38 38 38 37 35 33 31 30 29 27 25 24 24 23 21 20 20 20 20 20 20 27 33 35 41 46 44 44
19 20 20 20 19 19 20 20 20 20 19 19 19 19 19 21 21 18 17 15 14 22 32 34 34 35 34 34 35 34 34 36 36 36 37 36 35 35 36 38 38 37 36 37 38 39 39 37 36 35 33 32 31 30 29 28 27 26 25 25 23 22 21 20 21 20 19 23 30 35 39 45 46 46
18 18 19 19 18 19 20 21 21 20 20 20 20 21 21 21 22 21 20 19 16 19 29 34 34 35 35 34 35 35 34 34 35 36 36 36 37 38 38 37 37 37 37 38 39 39 37 35 33 33 32 31 31 31 31 31 30 29 29 28 27 25 24 22 21 21 20 21 27 34 37 41 46 47
17 17 17 18 18 19 21 21 21 20 20 21 21 21 22 22 22 23 22 22 21 21 26 32 34 34 34 34 35 35 34 35 36 36 35 35 38 39 38 37 37 37 36 37 38 36 34 32 31 31 32 33 34 34 34 34 33 32 31 30 29 28 26 24 22 21 21 20 24 31 36 39 44 48
16 16 16 17 18 19 21 21 21 21 21 21 22 22 23 23 23 24 23 24 24 23 26 31 34 34 33 33 34 34 34 36 38 37 35 35 39 42 40 38 38 38 36 35 35 34 31 31 31 33 35 36 36 36 35 35 34 33 31 30 29 28 27 25 23 22 21 21 22 27 35 39 43 48
14 15 15 17 18 19 20 20 20 21 21 21 22 23 23 24 24 24 25 25 26 25 25 29 32 34 33 33 34 35 34 35 37 37 36 36 38 41 43 40 37 37 37 34 31 30 31 33 34 35 36 37 37 36 35 34 33 31 30 28 27 27 26 24 24 23 22 21 22 24 31 37 42 48
13 14 14 15 17 18 18 18 19 20 22 22 22 23 23 24 24 25 26 26 27 26 26 27 29 31 33 32 33 35 36 34 32 32 34 36 37 39 40 40 40 38 35 31 30 31 33 36 37 37 36 36 35 34 32 31 30 29 27 26 25 25 24 23 24 24 22 23 22 23 28 34 40 46
12 12 13 14 16 16 16 16 18 19 20 21 22 23 23 22 23 25 26 26 27 26 26 27 27 30 32 32 33 37 37 33 29 31 33 34 37 39 38 37 38 35 31 30 32 35 35 35 37 37 36 36 34 33 32 30 29 27 26 25 24 24 24 22 23 24 24 23 23 23 25 31 37 43
11 11 11 13 15 15 14 15 16 16 17 19 21 22 22 22 22 23 25 25 26 26 26 26 27 27 28 32 34 34 34 31 32 37 37 33 35 38 37 37 35 31 30 33 37 38 34 33 36 36 35 35 33 32 31 29 28 27 26 25 24 23 23 22 21 22 23 24 24 24 24 27 33 40
9 9 9 11 13 13 13 14 15 15 17 18 20 21 21 21 21 22 23 24 25 25 25 26 27 23 24 32 34 32 34 35 35 38 37 33 35 36 32 32 33 31 32 36 40 40 33 30 33 33 32 33 32 30 30 29 28 28 27 26 25 24 23 22 21 21 22 23 25 25 24 24 28 35
6 6 7 9 12 12 13 14 15 15 17 19 21 21 20 19 19 20 21 23 24 24 25 27 28 24 25 33 37 35 36 37 36 39 37 33 35 35 28 24 29 35 37 36 38 40 35 28 30 31 30 30 30 30 30 30 30 29 28 27 26 25 24 23 22 21 21 23 25 26 25 24 25 31
3 5 7 8 10 12 13 14 15 16 18 20 21 21 21 19 18 18 19 21 23 24 24 27 30 29 28 33 37 38 38 36 37 39 36 31 32 34 29 24 28 37 39 33 31 36 34 28 27 30 30 29 31 32 31 31 31 30 29 27 26 25 25 24 23 22 22 23 25 26 26 25 25 28
1 4 6 7 9 10 12 14 16 17 19 21 21 21 21 20 19 19 19 20 21 24 25 26 30 32 31 33 37 39 38 37 36 34 32 30 31 33 32 30 34 37 35 30 29 32 31 27 26 28 30 31 32 33 32 32 31 31 29 27 26 25 25 24 24 23 23 23 25 26 27 27 25 26
1 4 6 7 8 9 12 15 16 18 20 21 21 21 21 21 21 21 21 21 21 24 26 27 30 33 32 33 37 38 37 36 35 34 33 32 33 35 36 35 34 32 30 31 29 27 27 27 26 28 31 32 32 31 31 32 31 30 29 27 25 24 24 24 24 24 24 24 24 26 27 27 27 26
2 3 4 7 8 8 11 14 15 18 20 20 21 22 22 22 23 22 22 22 22 24 27 28 30 33 34 35 37 38 37 36 36 36 36 35 36 37 36 34 31 30 32 34 28 24 28 29 26 28 31 32 31 29 29 30 29 27 26 24 22 21 21 23 24 24 24 24 24 26 27 28 27 26
1 2 4 6 7 8 10 12 14 16 18 19 21 23 23 23 23 23 23 23 22 23 25 27 30 32 34 36 37 38 38 36 37 37 35 35 37 35 30 28 30 32 32 32 28 27 31 30 28 29 32 31 32 31 30 27 23 21 20 19 19 18 18 19 22 24 25 25 25 25 26 27 27 26
1 1 3 5 6 7 9 11 13 15 16 19 22 24 25 25 25 25 25 24 24 24 25 26 29 32 35 37 39 40 39 38 38 35 31 33 37 32 22 20 28 33 29 27 30 29 30 29 29 30 32 32 31 30 28 24 21 21 21 19 18 18 18 18 19 22 24 25 25 25 26 27 26 26
2 1 3 4 5 7 8 9 12 14 15 19 22 24 25 26 26 27 27 26 26 26 26 27 30 33 36 38 40 41 41 41 40 36 31 34 36 31 22 21 28 29 24 27 34 30 28 30 29 28 29 29 27 24 22 22 25 26 24 21 19 19 18 18 18 20 23 24 25 26 25 26 26 25
4 2 2 3 5 6 7 8 11 13 14 17 20 22 25 26 27 28 28 27 27 28 29 30 32 34 37 39 40 42 42 42 42 39 36 36 33 30 28 27 25 19 19 32 39 31 28 30 28 25 22 18 19 23 23 24 29 29 25 22 20 17 15 15 16 18 20 22 24 26 26 26 26 25
5 3 2 3 4 6 6 7 9 12 14 15 18 21 23 25 26 28 29 28 27 27 29 31 33 35 38 39 41 42 43 44 44 41 39 36 33 31 31 31 26 19 23 37 41 32 29 30 27 26 23 14 15 26 30 28 29 28 26 23 21 19 17 15 14 16 18 20 23 25 27 27 27 27
5 3 3 3 4 5 6 6 8 10 13 14 16 19 21 23 26 28 29 29 29 28 29 30 32 35 37 39 41 42 44 45 44 43 41 39 36 34 32 32 31 28 30 38 40 33 30 30 28 29 28 21 19 26 30 29 26 24 23 22 22 23 22 18 16 14 14 17 21 24 27 28 28 28
3 3 4 4 4 5 6 7 8 9 11 13 15 17 20 23 26 28 30 31 31 31 31 31 33 35 37 39 41 43 44 45 45 44 43 42 40 38 35 32 30 30 34 38 39 33 29 29 31 30 28 26 23 23 23 23 23 24 24 23 23 23 22 19 17 14 13 14 18 23 26 28 29 29
3 3 4 4 5 6 6 8 9 9 10 12 14 16 19 21 24 27 30 32 32 33 33 32 33 34 36 38 40 42 44 45 45 45 45 45 44 42 39 33 28 29 34 38 38 36 31 29 32 33 30 29 24 17 15 17 20 24 27 26 24 21 19 17 14 13 12 12 15 19 24 27 29 29
3 4 5 5 6 7 7 8 9 10 10 11 12 15 18 20 23 26 29 31 33 33 34 33 32 33 34 36 38 40 42 43 43 44 46 46 45 44 41 36 31 31 36 38 40 41 37 33 33 33 31 30 23 16 14 17 20 23 25 27 26 21 16 14 12 13 14 14 17 20 23 27 29 29
4 5 5 6 7 7 8 9 10 10 11 11 12 14 16 19 21 24 27 30 32 33 33 32 32 32 33 34 35 37 40 41 41 43 45 45 46 46 44 40 36 36 38 38 41 43 41 38 35 32 30 30 27 24 21 20 21 23 24 26 26 20 15 15 14 15 17 16 19 23 24 26 30 31
5 6 6 7 8 8 9 9 10 11 12 12 12 13 14 17 20 22 24 27 29 30 31 31 32 32 32 32 33 35 38 40 41 42 42 43 45 47 45 42 41 42 41 40 41 44 44 42 38 31 26 28 33 33 28 22 21 24 26 29 26 19 18 22 15 10 16 17 18 21 22 22 27 31
7 7 7 8 9 9 9 10 11 11 12 13 13 13 14 15 18 20 22 23 25 28 30 31 32 32 32 32 33 35 37 39 40 41 40 40 42 45 44 40 39 41 43 43 43 44 44 44 41 32 24 24 33 38 33 27 26 27 29 31 27 21 22 26 19 6 7 13 13 13 14 15 19 25
8 9 8 8 9 10 10 10 11 11 12 13 13 14 14 15 17 19 20 22 24 26 29 30 31 33 33 33 33 35 36 37 39 40 40 39 40 42 42 38 36 38 41 44 46 47 46 46 42 34 24 21 29 39 39 35 33 32 31 31 29 27 28 29 24 16 9 12 14 11 9 9 10 15
9 9 9 9 10 10 10 11 12 12 13 14 14 15 15 16 17 18 20 21 23 25 27 29 30 31 33 33 32 33 35 37 38 39 39 39 39 39 38 36 36 37 37 39 43 46 47 48 44 35 26 20 26 39 45 40 36 36 33 31 30 30 31 32 28 22 17 16 18 20 18 13 10 9
10 9 9 9 10 11 11 12 13 13 14 15 16 17 17 17 18 19 20 21 22 23 25 28 29 30 31 32 32 32 33 35 37 38 38 39 38 37 35 33 35 38 36 35 38 40 42 46 46 39 31 24 23 36 47 46 41 39 34 32 33 31 31 33 31 26 23 21 20 23 24 21 17 12
12 10 10 10 11 11 12 13 14 14 15 15 16 17 18 18 18 18 20 20 21 22 23 26 27 28 29 30 31 31 31 32 35 37 38 39 38 36 34 32 33 36 35 34 38 39 38 41 43 39 35 28 21 27 43 51 49 44 38 35 35 34 31 30 30 29 28 26 25 26 26 26 25 19
15 12 11 12 12 12 13 14 14 15 16 16 16 17 18 19 19 18 19 20 20 21 22 24 26 27 28 29 30 30 30 30 32 35 37 38 37 36 35 33 32 35 34 33 37 40 38 38 39 33 25 20 15 16 28 42 47 48 43 38 36 36 32 29 28 29 29 28 27 26 23 22 25 26
17 15 13 13 13 14 14 15 15 16 17 17 17 17 18 19 19 19 19 19 20 20 20 22 24 26 27 27 28 30 30 29 30 31 33 36 36 35 35 33 32 34 34 32 36 39 36 34 36 31 20 13 11 10 17 31 43 50 49 42 38 37 34 29 28 29 28 26 25 25 23 22 25 28
19 17 15 15 15 15 15 16 16 17 18 18 18 19 19 19 19 19 19 19 20 20 20 21 22 24 26 26 26 28 29 29 29 30 31 33 34 34 33 33 32 32 33 33 35 39 37 32 32 32 23 14 11 9 14 25 35 43 48 47 43 41 38 33 30 28 27 25 23 22 23 24 24 26
20 19 18 17 17 17 17 17 17 18 19 19 20 20 20 21 20 20 20 20 20 21 21 20 21 22 24 25 25 26 27 27 28 29 29 30 31 31 31 31 30 30 31 32 34 37 36 31 29 30 27 20 15 13 15 19 24 31 39 45 46 45 43 39 35 31 28 24 21 23 28 31 30 30
21 20 20 19 19 18 18 18 18 19 20 20 21 21 21 22 22 21 21 20 21 21 21 20 20 20 21 23 24 25 25 26 26 27 28 29 30 30 30 31 30 29 29 30 32 33 32 28 25 26 26 22 19 19 20 20 22 27 34 40 42 43 43 42 39 35 29 23 21 24 30 33 33 35
21 21 21 20 20 20 20 19 19 19 20 21 21 22 22 22 22 22 22 21 20 21 21 20 20 19 20 21 22 23 24 24 25 26 27 28 29 30 30 30 31 30 27 27 29 29 28 27 26 26 26 25 25 25 24 19 18 24 31 35 37 39 42 43 41 37 35 34 32 27 22 22 27 32
22 22 21 21 21 21 21 21 20 20 21 22 22 22 22 23 23 23 23 22 20 20 21 20 19 19 18 19 20 21 22 23 23 23 24 26 28 30 30 30 29 28 26 25 26 25 26 28 30 30 31 30 27 23 19 15 16 21 27 32 34 37 40 43 43 41 40 43 42 33 22 16 16 21
23 23 22 21 21 21 22 21 21 22 22 22 22 22 23 23 24 24 24 23 21 20 20 20 19 19 18 18 18 20 20 21 22 21 22 24 25 27 28 29 27 26 24 24 25 26 27 28 30 32 33 30 24 19 18 18 19 22 24 26 30 34 36 38 42 43 43 42 40 35 29 23 17 15
23 23 23 22 21 21 21 21 20 20 21 21 22 22 22 23 23 24 24 24 23 22 21 20 20 19 18 17 17 18 19 20 20 20 20 21 22 23 26 27 28 27 25 23 25 27 28 27 28 30 31 28 23 20 19 19 19 20 21 24 28 31 32 33 36 40 44 44 41 36 34 32 27 23
23 23 23 23 23 22 22 20 19 19 19 20 20 21 21 22 23 24 24 25 24 23 22 21 20 19 18 17 17 17 18 19 19 20 20 20 19 20 22 24 26 27 26 23 23 24 26 27 27 27 27 27 25 23 20 19 19 19 20 23 26 28 28 29 31 32 34 38 39 37 35 34 32 29
Wind_Direction
74 70 67 64 61 58 57 56 54 52 50 49 43 37 37 35 22 344 327 334 321 329 339 339 339 347 349 347 348 347 345 345 344 340 336 335 335 336 336 332 329 328 326 325 324 323 323 323 322 320 319 318 317 315 313 311 307 305 305 305 303 297 288 274 254 235 227 224 220 217 218 215 211 209
73 72 66 62 61 58 58 57 55 52 47 43 39 32 28 20 16 356 312 309 298 319 330 331 331 339 344 345 345 345 344 344 342 338 335 334 334 334 332 329 328 326 324 323 322 321 320 320 318 318 318 316 314 312 310 309 305 302 304 301 297 297 292 281 265 244 230 227 224 220 217 215 212 209
72 70 64 60 59 58 59 58 54 50 45 39 33 28 22 11 1 346 307 291 305 315 321 325 330 335 338 340 341 341 341 342 340 337 335 333 333 331 329 328 326 325 323 322 321 319 318 317 317 317 316 312 310 308 307 307 304 300 300 298 293 294 293 284 274 256 236 229 227 223 218 216 214 210
68 66 63 61 60 59 59 56 51 46 40 33 26 19 13 7 359 343 320 266 298 316 320 322 328 334 335 336 337 336 337 339 338 336 334 332 331 329 327 326 325 323 322 321 320 319 317 316 316 315 313 310 308 308 306 306 305 300 297 297 293 290 291 286 277 265 244 230 226 225 221 217 215 211
67 64 64 64 63 61 57 51 45 39 32 26 20 15 7 3 1 348 329 294 295 316 325 325 328 334 334 333 335 334 333 335 335 333 332 331 329 327 325 323 323 322 321 321 320 319 318 316 314 313 312 310 309 308 307 307 306 302 298 296 294 289 288 287 277 269 253 233 224 223 223 218 215 213
66 64 65 66 64 58 51 44 38 31 26 21 16 13 8 2 1 356 339 321 302 311 324 328 329 334 334 331 334 335 331 331 332 330 330 330 328 326 324 321 320 320 321 321 321 320 317 316 314 312 312 310 308 308 307 305 304 303 300 297 295 291 286 283 278 269 259 240 224 220 222 220 215 212
65 64 66 66 60 51 43 37 33 28 23 18 13 9 7 2 359 358 348 334 318 308 319 327 329 331 333 330 331 333 331 330 330 328 328 328 326 324 322 320 319 320 322 321 320 320 317 315 313 311 310 308 307 306 304 303 301 300 299 296 295 293 285 279 277 269 261 249 231 220 220 222 218 213
63 63 66 63 53 43 37 32 27 25 21 16 12 8 5 1 356 354 351 343 333 318 316 324 329 329 329 329 331 333 332 331 330 328 328 327 326 324 321 319 319 320 322 322 320 319 316 314 312 310 309 307 305 303 301 300 298 296 295 294 291 291 287 277 272 268 261 253 240 226 219 220 221 216
63 63 63 57 45 36 31 27 21 19 18 14 11 7 2 358 353 349 349 346 340 329 319 322 328 330 329 329 332 334 333 331 330 329 329 328 326 325 322 320 320 322 323 323 320 318 315 313 312 310 307 305 302 301 298 297 296 294 292 290 288 287 286 277 268 266 261 254 247 235 222 218 219 217
64 62 60 49 39 32 25 20 17 14 13 11 9 5 359 355 351 348 349 347 343 337 328 324 326 329 330 329 331 335 336 332 329 328 327 328 327 326 324 322 323 325 325 323 320 317 314 312 310 307 306 304 302 301 299 297 296 294 291 288 285 284 283 277 267 262 259 253 248 242 230 221 218 217
64 60 56 43 33 29 23 17 16 13 9 7 5 2 357 353 351 350 349 348 344 339 333 329 326 327 330 329 329 334 337 335 332 330 327 326 326 326 325 324 326 328 327 325 321 316 313 311 309 307 306 306 305 303 302 300 297 296 292 288 285 282 280 277 268 261 257 252 247 245 236 225 218 216
67 60 50 38 30 26 22 18 17 13 7 3 0 358 356 353 352 351 349 348 345 340 334 331 329 328 330 331 332 335 339 338 335 333 329 322 319 322 324 323 325 329 329 326 319 314 312 313 312 311 310 309 310 308 306 304 300 297 293 288 285 281 279 276 270 261 256 251 246 244 241 230 220 215
70 62 45 33 29 25 21 17 14 10 6 2 358 355 355 355 354 353 351 348 345 341 336 331 332 332 330 333 334 335 338 337 332 331 328 318 314 320 322 323 327 331 331 327 319 313 312 314 313 312 311 311 312 311 307 305 302 299 296 291 286 282 279 276 271 262 255 250 246 243 243 237 225 216
69 56 39 28 24 20 16 13 10 6 2 359 356 355 356 357 358 355 352 350 346 341 336 333 333 331 328 332 334 332 335 335 332 330 326 317 318 324 324 325 330 335 335 329 320 313 315 318 316 313 312 312 313 311 306 304 303 300 298 294 288 283 280 275 270 263 255 250 247 243 242 240 230 219
64 40 28 23 16 11 10 8 6 2 358 356 356 359 2 3 4 0 354 351 349 343 337 334 335 331 327 331 333 332 333 334 332 329 325 320 323 329 329 327 329 334 335 329 318 313 318 325 320 315 314 313 312 310 305 304 303 300 297 293 288 282 279 274 268 263 256 250 247 245 243 241 235 225
53 15 16 19 11 8 7 2 359 357 355 355 356 1 8 9 9 9 3 356 352 347 340 336 336 335 330 331 334 334 333 332 330 328 326 322 324 328 329 325 324 329 331 326 316 312 318 326 323 315 312 310 310 310 309 305 303 301 297 292 288 281 276 273 267 261 255 250 246 245 243 240 237 231
23 357 9 13 7 5 3 357 356 354 353 355 358 4 10 13 13 13 11 7 0 354 349 340 339 342 337 332 334 337 336 332 329 326 324 323 324 326 326 322 321 326 329 327 318 313 317 327 324 314 311 311 310 310 310 308 303 300 298 292 287 282 275 270 266 261 255 250 245 244 242 239 238 234
324 352 4 5 5 5 358 354 354 354 354 356 360 4 10 14 15 14 12 11 8 3 358 349 345 349 347 339 338 341 341 337 332 328 324 325 327 326 323 321 321 326 331 330 323 314 318 328 324 313 311 313 311 309 309 310 306 301 298 294 287 282 276 269 265 260 255 249 245 242 240 238 237 235
302 350 359 360 4 3 357 353 354 354 357 360 2 6 11 13 15 15 12 10 7 4 3 358 354 354 354 350 347 347 347 344 340 336 332 332 332 328 324 325 328 331 335 336 332 321 320 327 323 314 313 313 311 310 310 312 312 307 303 299 291 283 276 270 264 259 255 249 244 241 238 237 235 234
280 345 354 358 2 358 352 353 357 359 2 6 8 10 12 13 15 16 14 11 9 6 4 3 2 1 0 359 357 355 352 349 347 343 338 337 337 331 326 328 332 335 336 339 339 326 320 325 324 318 318 317 313 312 313 317 322 320 313 307 299 291 281 273 266 259 254 248 243 240 236 234 233 232
223 324 351 356 356 352 350 354 1 5 9 12 13 12 12 13 14 14 13 13 12 9 7 6 7 7 6 5 3 1 357 355 353 348 340 339 339 334 328 328 332 333 331 336 340 330 320 324 324 318 320 321 316 311 312 318 324 324 319 311 303 297 290 282 272 261 254 248 242 238 234 232 231 231
211 261 345 353 348 345 348 357 6 11 15 16 15 13 11 10 11 11 10 9 9 9 8 8 9 10 9 7 5 4 1 359 359 354 345 342 340 334 327 326 327 327 328 337 341 332 323 327 326 320 320 321 319 313 310 313 317 318 319 315 305 299 293 284 276 265 256 247 239 236 233 229 228 228
203 236 320 334 338 340 346 360 11 16 17 17 16 13 11 9 9 9 9 8 6 5 6 6 7 8 9 7 5 4 2 1 1 358 351 347 343 335 331 330 329 326 330 340 342 335 328 330 330 327 325 319 320 323 317 311 310 311 317 320 313 306 298 286 274 265 256 246 237 233 230 225 224 226
199 223 284 303 321 337 345 358 11 17 16 15 14 14 12 9 7 8 10 10 8 5 4 5 5 6 7 6 4 2 2 2 1 359 356 352 348 342 337 335 334 327 326 336 341 337 331 331 329 330 330 318 313 321 318 311 306 308 316 321 318 313 310 301 282 265 254 245 236 231 228 223 220 221
199 228 270 288 307 334 347 350 359 9 11 11 12 12 12 10 8 8 10 10 10 8 5 4 5 5 4 5 4 2 1 1 0 358 357 356 354 351 344 338 335 330 330 340 346 341 333 332 331 330 330 325 316 316 315 311 308 312 319 320 315 311 308 304 293 277 258 244 233 227 225 222 219 219
206 246 277 288 300 326 345 347 346 353 1 5 7 9 10 10 10 10 10 10 10 9 7 5 4 4 2 2 2 1 1 1 360 358 358 359 359 357 353 348 341 336 338 346 351 349 340 336 336 333 331 330 325 318 315 313 316 324 328 324 317 310 304 299 291 278 263 248 234 225 222 221 219 218
228 268 286 291 298 313 333 343 342 342 347 355 1 4 6 7 8 9 10 10 10 9 7 5 3 2 1 360 360 360 360 0 0 360 359 0 1 360 359 358 354 348 347 351 356 357 351 343 344 342 337 333 330 322 320 321 326 334 334 329 325 320 312 303 285 261 249 239 230 224 221 219 219 217
254 276 287 294 300 305 317 332 337 336 337 343 351 358 2 3 5 7 8 8 8 8 6 4 1 1 1 0 359 359 360 1 1 1 2 3 2 1 1 1 0 358 357 357 1 3 359 351 349 349 346 345 341 334 332 330 331 339 341 336 333 330 322 312 290 263 245 227 219 218 216 216 215 213
267 278 287 294 301 304 308 320 329 331 334 337 342 349 356 360 1 4 6 7 7 6 4 1 359 0 2 2 2 2 2 3 2 1 3 4 3 3 3 3 4 4 2 1 3 7 6 358 352 350 352 355 354 347 341 337 338 347 352 348 342 339 340 336 310 271 249 231 219 216 216 216 213 209
270 278 287 293 299 303 307 314 322 330 336 340 340 343 349 356 359 1 3 5 5 3 2 1 360 1 2 3 4 5 4 4 3 2 1 1 2 3 2 1 2 4 5 3 4 7 8 4 359 354 352 358 4 0 353 349 350 356 1 360 356 353 353 353 342 274 241 231 221 219 222 220 215 210
272 273 280 290 296 299 304 312 320 328 336 342 343 343 345 351 356 358 360 2 3 2 1 1 1 1 2 4 5 6 6 5 5 4 2 1 1 2 1 359 359 1 2 3 5 8 10 8 5 2 355 358 6 6 5 8 6 3 3 6 7 3 357 1 13 29 207 205 199 205 214 214 213 211
272 272 274 283 289 294 300 308 317 325 333 340 344 345 346 348 352 354 357 360 2 3 1 1 1 2 2 4 4 5 6 5 5 5 5 4 3 3 3 2 359 357 359 1 3 7 10 10 10 8 5 6 11 12 14 16 14 9 5 6 9 10 9 12 25 46 92 135 129 118 134 161 187 203
271 271 270 275 282 288 296 305 314 323 331 339 344 347 348 348 349 351 354 356 359 0 0 0 1 0 1 2 3 4 6 7 6 6 5 5 5 5 5 3 0 359 357 357 360 3 7 10 11 11 12 17 23 22 21 18 14 11 9 7 8 12 16 19 26 43 66 88 92 86 88 95 113 157
271 270 269 272 279 286 293 301 311 319 325 333 340 345 348 348 347 348 350 352 354 356 357 358 359 359 359 360 2 3 4 6 7 7 6 6 7 6 5 1 0 1 359 357 358 1 4 7 8 9 13 20 27 29 28 24 16 11 12 14 13 13 16 20 26 40 53 63 73 75 68 65 74 98
268 271 270 271 276 285 292 298 307 313 317 324 331 336 341 345 345 345 346 348 350 352 354 356 358 359 359 359 360 1 2 5 7 8 7 7 7 6 5 3 0 1 1 360 360 1 5 8 6 4 6 11 18 25 27 25 20 14 13 16 16 14 15 19 25 36 45 50 59 64 58 52 55 64
264 268 271 271 274 281 289 296 303 307 310 315 320 324 330 336 340 342 342 343 346 347 349 352 355 357 358 358 359 1 2 4 7 8 7 7 6 5 5 4 2 2 3 3 4 5 8 11 8 1 357 2 9 15 16 18 22 22 18 15 16 15 15 18 25 34 39 42 49 57 58 51 48 53
260 264 269 272 274 278 285 293 299 303 304 308 312 315 319 324 331 337 339 339 341 344 345 349 352 355 357 357 358 0 2 3 5 8 8 7 6 4 3 2 2 3 4 5 8 11 12 11 8 4 358 359 7 7 1 7 18 25 24 20 18 18 18 20 24 28 33 38 44 52 58 56 51 52
259 262 266 270 274 278 283 289 295 299 302 304 306 309 313 317 323 331 335 335 337 339 342 346 349 352 355 356 356 359 1 1 2 6 8 8 6 3 1 360 1 3 5 6 10 13 15 14 7 3 2 5 5 356 351 357 8 19 24 25 24 23 24 25 24 24 27 33 40 49 57 59 56 54
259 261 264 268 271 276 282 286 291 295 299 302 303 305 308 313 318 324 330 333 334 336 338 342 345 347 352 354 354 355 358 0 360 1 5 7 6 3 1 360 360 1 4 7 10 13 15 14 7 2 4 7 3 354 350 353 359 11 22 29 31 29 28 28 28 26 25 28 34 46 55 58 56 56
260 261 263 266 269 273 278 283 287 292 296 299 301 303 304 307 312 317 322 327 331 332 334 336 339 342 347 352 353 353 355 359 1 359 0 4 7 6 4 2 2 2 3 5 8 11 12 10 7 7 7 7 9 14 18 16 13 14 22 29 34 35 35 35 34 31 27 28 34 42 47 48 46 47
263 263 264 266 268 271 276 280 285 291 294 296 298 301 302 303 306 309 314 319 324 327 329 331 334 337 340 347 351 351 351 355 359 1 1 2 5 7 7 6 5 4 2 1 3 7 10 11 15 21 22 21 22 26 28 23 13 12 17 23 29 35 40 42 43 42 38 39 42 41 39 41 42 42
264 265 266 267 269 271 275 280 285 290 293 293 295 298 301 302 303 305 308 313 316 321 325 328 330 332 335 340 346 349 349 350 353 358 2 2 2 4 7 7 6 3 359 357 359 4 12 19 23 26 29 29 27 25 23 15 6 8 12 17 23 31 37 41 46 49 48 47 47 44 36 31 35 35
265 267 267 269 272 275 279 284 287 289 290 290 292 295 298 300 302 302 305 308 311 315 320 324 326 329 330 333 337 342 346 348 349 352 358 2 2 2 3 3 5 5 2 1 3 8 15 21 24 27 30 29 26 23 20 16 14 13 12 13 19 27 33 37 42 48 52 54 55 55 52 53 57 54
266 268 270 273 277 281 285 290 291 289 288 287 289 292 295 297 300 301 303 305 307 309 314 319 322 325 328 328 330 335 340 345 347 347 350 356 0 3 3 2 4 7 7 5 4 8 13 17 22 28 31 29 26 26 21 16 16 18 17 17 21 25 27 30 36 42 47 50 54 58 62 65 71 76
267 270 273 277 281 284 288 292 292 289 287 286 287 291 295 296 297 299 301 302 304 306 309 312 315 320 323 324 324 327 332 338 342 343 344 346 350 357 3 3 3 5 8 7 3 4 8 11 17 24 29 29 30 31 27 22 21 19 16 20 25 26 26 29 32 36 41 44 48 55 63 68 73 77
Height
860 861 861 861 861 861 861 861 861 861 861 861 860 859 859 859 858 857 852 846 842 840 838 837 833 831 830 828 825 823 820 818 815 812 809 807 804 801 799 796 793 791 788 785 782 779 777 775 773 770 767 764 762 760 758 755 753 751 750 749 748 747 746 746 746 747 749 751 754 757 759 762 765 768
862 862 862 862 862 862 863 862 863 863 862 861 861 860 860 859 859 859 857 851 844 841 840 838 835 831 829 827 824 822 819 817 814 811 808 805 802 799 797 794 791 788 785 783 780 777 774 772 769 767 764 761 759 757 755 753 750 748 747 746 745 744 743 744 744 744 745 747 750 753 755 758 761 763
863 863 863 863 863 864 864 864 864 863 862 862 861 860 860 859 858 858 858 853 845 842 840 837 835 832 829 826 824 821 818 815 813 810 806 803 800 797 794 791 788 786 783 780 777 774 771 768 766 763 761 758 756 754 752 750 747 746 744 743 742 741 741 740 741 740 741 742 745 749 752 754 757 759
865 864 864 864 864 865 865 865 864 863 863 862 861 861 860 859 858 856 857 854 846 841 841 837 833 831 828 825 823 819 816 814 811 808 805 801 798 795 791 788 785 783 780 777 775 772 768 765 762 759 757 755 753 750 748 747 745 743 741 740 739 738 738 737 737 737 737 738 741 745 748 750 753 756
866 865 865 865 865 866 865 865 864 863 863 862 861 860 859 858 857 855 854 852 845 839 838 836 832 830 827 823 821 818 814 811 808 805 802 799 796 793 789 785 782 780 777 774 771 768 765 762 758 755 753 751 749 747 745 743 742 740 738 737 736 736 735 734 734 734 734 735 737 740 743 746 748 752
867 866 866 866 866 866 866 865 864 863 862 862 861 860 858 857 856 854 852 850 846 839 835 834 831 828 826 822 819 817 813 809 806 803 800 797 794 790 787 783 779 776 774 771 768 765 761 758 754 751 749 747 745 743 741 740 739 737 736 734 733 733 732 731 731 731 731 731 732 735 738 741 744 748
868 868 867 867 867 867 866 865 864 863 862 862 860 859 858 856 854 854 852 849 846 841 835 832 829 826 824 821 817 815 812 808 805 801 798 795 791 787 784 780 776 774 771 768 764 761 757 754 751 748 745 743 741 739 737 736 735 734 733 731 730 729 729 728 728 727 727 728 728 730 733 737 740 743
869 868 868 868 867 867 866 865 864 864 862 861 860 858 857 855 854 852 851 849 846 842 836 832 829 826 823 820 816 813 810 807 804 800 797 793 789 785 781 777 773 770 768 764 760 757 753 750 748 744 741 739 737 735 733 732 731 730 729 728 727 726 725 724 724 724 724 724 724 726 728 732 736 739
869 869 868 868 867 867 866 865 864 863 862 861 859 858 856 855 853 851 850 848 845 843 838 832 829 826 822 819 815 812 809 804 800 797 795 792 787 781 776 773 770 766 764 761 757 753 749 746 744 741 737 734 732 731 729 727 726 725 725 724 723 722 721 721 720 721 720 720 721 722 724 728 731 734
870 869 869 868 868 867 866 865 864 863 862 860 859 858 856 854 852 850 848 846 844 842 838 834 828 824 821 818 814 811 809 805 798 793 789 787 784 778 771 767 766 764 761 757 754 749 745 742 739 736 733 730 727 726 724 722 721 720 720 720 719 718 718 717 716 716 717 717 717 718 720 723 726 729
870 870 869 869 868 867 867 866 865 863 862 861 859 858 856 854 852 850 848 845 843 840 837 834 829 824 821 818 813 810 808 805 801 795 787 781 778 776 771 765 762 761 758 754 750 745 741 738 734 731 728 725 723 721 720 718 716 715 715 715 715 715 714 714 713 712 713 713 714 715 716 718 721 724
871 870 870 869 869 868 867 866 865 864 862 861 859 858 856 854 852 850 847 845 842 840 836 833 829 825 820 817 813 809 805 801 798 796 791 782 775 772 770 765 761 758 755 751 745 740 737 733 729 725 723 721 719 717 715 714 712 711 711 711 711 711 710 710 710 709 709 710 710 711 712 714 716 719
871 871 870 870 869 869 868 867 866 865 864 862 860 858 856 854 852 849 847 845 842 839 836 832 829 825 820 816 812 808 805 802 798 794 790 783 776 771 768 763 760 758 753 748 741 734 733 731 725 722 719 716 715 713 711 710 708 707 707 707 707 707 707 707 706 706 706 706 707 707 708 709 711 713
871 871 871 870 870 869 868 868 867 865 864 863 861 859 857 855 852 850 847 845 842 839 836 832 829 825 821 817 813 810 806 804 799 793 787 780 773 770 765 759 757 756 752 746 736 729 730 730 723 719 717 714 712 710 708 706 705 704 703 703 702 703 703 703 703 703 703 703 703 704 704 705 706 709
872 871 871 871 870 869 868 868 867 866 864 863 861 859 857 855 853 850 847 845 842 840 836 833 829 826 822 817 814 810 806 803 798 792 787 780 773 768 765 759 754 753 751 746 735 726 726 729 723 717 715 712 709 707 705 703 701 700 699 699 698 698 698 699 699 699 699 699 699 700 700 701 702 704
872 872 872 871 871 870 869 868 867 866 864 863 861 859 857 855 853 851 848 845 842 840 837 833 829 826 823 818 813 810 806 802 797 792 787 782 776 771 767 762 756 752 749 746 737 727 725 727 723 716 712 709 705 703 700 699 697 696 695 694 694 694 694 694 695 695 695 696 696 696 697 697 699 701
872 872 872 872 871 870 869 868 867 865 864 862 861 859 857 855 853 850 848 846 843 840 837 834 830 826 823 819 814 810 807 802 796 791 786 782 777 772 768 763 757 751 747 743 737 728 724 725 721 715 710 706 702 699 696 694 693 691 690 690 689 689 690 690 691 691 691 692 692 693 694 694 695 697
873 873 872 872 871 870 869 868 867 865 864 862 860 858 856 854 852 850 847 845 843 841 838 834 831 827 824 820 815 811 808 803 797 792 786 782 778 772 766 761 756 750 746 742 736 727 723 723 719 713 707 703 699 696 693 690 688 687 685 685 685 685 685 686 686 687 688 688 689 689 690 691 692 694
873 873 873 872 871 871 869 868 867 865 864 862 860 858 856 853 851 849 846 844 842 840 837 834 831 827 824 820 815 811 807 804 799 794 788 783 778 771 764 758 754 750 746 742 736 727 722 721 718 710 705 701 696 693 690 686 684 683 682 681 681 681 681 681 682 683 683 684 685 686 687 688 689 691
873 873 873 872 871 871 870 869 868 866 864 862 860 857 855 853 850 848 846 844 842 839 837 834 831 828 824 820 815 811 807 803 798 793 787 781 776 769 762 755 751 747 743 740 737 730 721 719 717 709 703 699 694 689 687 684 682 680 679 678 677 677 677 677 677 678 679 680 681 682 684 685 686 688
873 872 872 872 871 871 870 869 868 866 864 862 860 857 855 852 850 847 845 843 841 839 836 834 831 827 823 819 815 810 805 801 796 790 784 779 774 767 761 755 750 746 742 739 737 731 723 718 715 708 701 697 692 687 684 682 680 678 677 676 675 674 674 673 674 674 675 676 678 679 680 682 684 685
872 872 872 872 871 870 869 868 867 866 864 862 860 857 854 852 849 846 843 841 839 837 835 832 829 826 822 818 813 808 804 799 795 790 785 780 775 769 763 757 750 745 741 739 735 730 723 718 714 707 699 692 689 686 683 680 678 676 674 673 672 671 670 670 670 670 671 672 674 675 677 679 681 683
872 872 871 871 871 870 869 868 867 866 864 862 860 857 854 851 848 845 843 840 837 835 833 830 827 824 820 816 812 807 803 799 794 791 787 782 777 771 765 759 751 743 738 737 735 729 723 718 715 710 702 691 684 683 682 679 675 673 671 670 668 667 667 667 666 666 667 668 670 672 674 676 678 680
871 871 871 871 870 870 869 868 866 865 864 862 860 858 855 852 848 845 843 840 837 835 832 829 826 823 819 816 811 807 802 798 793 790 787 782 778 773 767 761 756 749 743 738 735 730 724 719 715 712 708 700 689 682 680 677 673 671 669 667 666 664 664 663 663 663 664 665 666 668 670 672 675 677
870 870 871 870 870 869 868 867 866 865 864 862 860 858 855 852 849 846 843 840 837 835 832 829 826 822 819 815 810 806 801 797 793 789 785 782 778 773 768 762 757 752 747 741 737 732 726 720 715 710 707 703 695 687 680 674 670 669 668 666 664 662 661 660 660 660 661 662 663 665 666 669 671 673
869 870 870 869 869 868 867 866 865 864 863 862 860 858 855 852 850 847 843 840 837 834 831 828 825 822 818 814 809 805 801 796 792 788 785 781 777 774 770 765 759 753 747 742 738 733 727 722 716 711 705 701 695 688 681 674 669 667 665 663 662 660 658 658 657 657 658 659 660 662 663 665 668 670
869 869 869 868 868 868 867 866 865 864 863 861 859 857 855 852 849 846 843 840 837 833 831 827 825 821 818 814 810 805 801 797 792 788 784 780 777 772 769 766 762 757 751 744 739 734 730 724 719 713 709 702 695 688 683 677 671 667 663 660 659 657 656 655 654 654 655 656 658 659 661 663 665 668
868 868 868 867 867 867 866 865 864 863 862 860 858 856 854 852 849 846 843 840 837 833 830 827 825 822 819 815 811 807 803 799 795 790 786 781 777 772 768 764 761 757 752 746 740 735 730 726 720 715 711 706 699 692 685 680 675 670 665 660 656 654 653 653 652 652 652 653 655 656 657 659 662 665
867 867 867 866 866 866 865 864 863 862 861 859 858 856 853 851 849 846 843 840 837 834 831 828 825 823 820 817 813 809 805 801 796 792 786 781 777 772 767 763 760 756 751 746 741 736 731 726 721 716 712 708 702 696 689 683 677 673 668 663 657 653 652 651 650 649 649 650 651 652 654 656 658 661
866 866 866 865 865 865 864 864 862 861 860 858 857 855 853 851 848 846 843 840 837 835 832 829 826 823 820 818 815 811 806 801 796 792 786 781 776 771 765 761 757 754 750 746 741 736 731 727 722 717 713 709 704 698 692 686 680 674 670 666 660 655 652 650 647 646 646 648 649 651 653 655 657 659
865 865 864 864 864 864 863 863 862 860 859 857 856 854 852 850 848 846 843 841 838 836 833 830 827 824 821 818 814 810 806 801 797 793 788 783 778 772 767 761 757 753 749 745 741 737 732 728 722 718 715 710 705 699 693 687 682 676 672 669 665 662 658 653 648 646 646 647 649 651 653 655 657 659
864 863 863 863 863 863 862 862 861 860 858 856 855 853 852 850 848 846 844 841 839 836 833 830 827 824 820 817 813 810 806 802 798 794 790 785 780 775 770 764 759 754 749 744 739 735 732 729 724 720 716 713 708 702 694 687 683 680 676 673 669 666 662 656 652 650 649 649 650 652 653 655 657 659
862 862 862 862 862 862 861 861 860 858 857 855 854 852 851 849 847 845 843 841 838 836 833 830 827 824 820 817 814 810 807 803 799 795 791 787 783 778 773 769 764 759 753 747 742 737 733 729 726 722 719 715 711 706 698 691 687 684 681 677 673 669 666 661 658 655 653 653 653 653 655 656 657 659
860 860 860 860 860 860 860 859 858 857 856 854 852 851 849 848 846 844 842 840 838 836 834 831 828 825 821 818 814 811 807 804 800 796 793 789 785 780 777 772 768 763 758 753 748 742 737 732 727 723 719 716 714 710 704 698 694 690 686 682 678 674 671 668 664 661 659 658 657 656 657 658 659 660
858 858 858 858 858 858 858 857 857 856 855 853 852 850 848 847 845 844 842 840 838 836 833 831 828 825 822 819 815 812 809 805 801 798 794 790 786 783 780 776 772 767 763 758 752 747 742 737 730 723 718 715 712 709 705 703 701 695 689 685 682 680 677 675 671 668 665 663 661 659 659 661 661 662
856 856 856 856 856 856 856 855 855 855 853 852 851 849 847 846 844 843 841 839 838 835 833 831 829 826 823 820 816 813 810 806 803 799 795 791 788 785 782 779 775 771 767 762 758 752 747 742 738 732 725 719 715 711 710 710 709 704 697 693 689 686 683 681 678 674 670 669 667 664 665 667 667 666
855 854 854 854 854 854 854 853 853 853 852 851 850 848 847 845 844 842 841 839 837 835 833 831 829 826 823 820 817 814 810 807 804 801 797 794 790 786 783 780 777 773 769 766 762 757 751 748 744 741 736 730 725 723 721 718 713 709 705 702 698 693 689 686 683 679 676 675 674 671 671 671 671 670
853 852 852 852 852 852 852 852 851 851 850 850 848 847 846 844 843 842 840 838 836 834 833 831 828 826 823 821 818 814 811 808 805 802 799 796 792 789 786 782 779 776 772 769 765 760 756 753 749 747 744 740 736 733 729 723 717 714 713 710 705 700 695 690 687 685 682 681 679 678 676 675 675 675
851 850 850 850 850 850 850 850 849 849 848 848 847 845 844 843 842 840 839 837 835 833 832 830 828 826 824 821 818 815 813 810 806 803 801 798 795 792 788 785 782 779 775 772 768 764 760 757 755 752 749 747 745 742 738 734 729 726 723 718 712 707 701 696 693 691 688 686 684 682 679 677 677 677
849 848 848 848 848 848 848 847 847 847 846 846 845 844 843 841 840 839 837 836 834 832 831 829 827 825 823 821 818 816 813 811 808 805 802 799 797 794 790 787 784 781 778 774 771 768 765 763 760 757 754 752 750 747 743 739 736 732 728 724 720 717 712 706 701 697 694 691 688 685 682 680 680 678
846 846 845 845 845 845 845 845 845 844 844 844 843 842 841 840 839 838 836 835 833 831 829 828 826 824 823 821 819 816 813 811 809 807 803 800 798 795 792 789 785 782 780 777 774 772 770 767 764 761 758 754 750 746 742 740 737 734 731 728 726 723 719 715 710 706 702 696 691 688 688 688 687 685
844 843 843 843 843 843 843 843 842 842 842 841 841 840 839 838 837 836 834 833 832 830 828 826 825 823 822 820 818 816 814 812 809 807 805 802 799 796 793 791 788 785 782 780 778 776 773 770 766 763 758 755 751 748 747 745 743 740 737 733 730 727 723 720 716 712 707 702 697 696 696 695 693 693
841 841 841 840 840 840 840 840 840 839 839 839 838 838 837 836 835 833 832 831 830 828 827 825 823 822 821 819 818 816 814 812 810 808 806 803 801 798 795 792 790 788 785 782 780 778 775 772 768 764 760 757 756 754 753 751 749 746 743 739 736 732 728 725 722 718 714 710 707 707 706 703 702 704
837 838 838 837 838 838 838 837 837 836 836 836 835 835 834 834 832 831 830 829 827 826 825 823 822 820 819 818 816 815 813 812 810 808 806 804 802 800 797 794 791 789 786 783 781 778 775 773 771 767 764 762 760 758 757 755 753 751 748 745 741 737 734 731 728 724 720 717 716 715 714 712 711 713
834 834 834 834 835 835 835 835 834 833 833 833 833 832 832 831 830 829 827 826 825 824 823 822 820 819 818 816 815 813 812 811 809 807 806 804 802 800 798 795 792 789 787 785 782 779 777 774 772 770 767 766 763 761 760 759 756 754 751 748 745 742 739 737 734 730 727 726 726 725 723 721 720 720